Location: Ahausen
(50.4985°N, 8.2722°E)
Time: 10:14:28
(UTC+00:00)

SJ-11-01 - Pass Details

Date: 18 September 2020
Orbit: 684 x 701 km, 98.0° (Epoch: 26 October)

Event Time Altitude Azimuth Distance (km) Brightness Sun altitude
Rises 18:04:08 0° 157° (SSE) 3,068 7.3 -5.7°
Reaches altitude 10° 18:06:23 10° 155° (SSE) 2,153 6.5 -6.1°
Maximum altitude 18:11:04 69° 73° (ENE) 745 4.3 -6.8°
Drops below altitude 10° 18:15:46 10° 350° (N) 2,158 7.1 -7.5°
Sets 18:18:01 0° 348° (NNW) 3,076 8.0 -7.9°
